Regional Weather Roundup
Issued by NWS

Home | Current Version | Previous Version | Graphics & Text | Print | Product List | Glossary On
Versions: 1 2 3 4 5 6 7 8 9 10 11 12 13 14 15 16 17 18 19 20 21 22 23 24 25 26 27 28 29 30 31 32 33 34 35 36 37 38 39 40 41 42 43 44 45 46 47 48 49 50
000
ASUS43 KOAX 042102
RWRNE

WEATHER ROUNDUP FOR NEBRASKA
NATIONAL WEATHER SERVICE OMAHA NE
400 PM CDT SAT JUL 04 2015

NOTES: SATELLITE DATA IS BEING USED TO AUGMENT CLOUD COVER ABOVE
       12000 FEET.
       "FAIR" INDICATES FEW OR NO CLOUDS BELOW 12,000 FEET WITH NO
       SIGNIFICANT WEATHER AND/OR OBSTRUCTIONS TO VISIBILITY.

  * THESE STATIONS DO NOT REPORT WEATHER SUCH AS RAIN...SNOW OR FOG.

NEZ001>004-019>022-054>056-042200-
NEBRASKA PANHANDLE

CITY           SKY/WX    TMP DP  RH WIND       PRES   REMARKS
SCOTTSBLUFF    MOSUNNY   95  52  23 SE10G16   29.87F HX  92
ALLIANCE       SUNNY     90  62  39 S13       29.88F HX  90
CHADRON        SUNNY     93  63  36 SE7       29.82F HX  94
KIMBALL          N/A    N/A N/A N/A MISG        N/A
SIDNEY         MOSUNNY   91  58  32 S12G18    29.93F HX  90
$$

NEZ057>060-069>072-079>082-042200-
SOUTHWEST NEBRASKA

CITY           SKY/WX    TMP DP  RH WIND       PRES   REMARKS
NORTH PLATTE   SUNNY     90  64  42 S12G23    29.89F HX  91
IMPERIAL       SUNNY     95  57  27 S13G23    29.88F HX  94
LEXINGTON      SUNNY     89  65  44 SE16G25   29.92F HX  90
MCCOOK         MOSUNNY   95  58  28 SE16G24   29.88F HX  94
$$

NEZ005>010-023>029-035>040-094-042200-
NORTH CENTRAL NEBRASKA

CITY           SKY/WX    TMP DP  RH WIND       PRES   REMARKS
VALENTINE      SUNNY     91  64  40 S18G25    29.85F HX  92
AINSWORTH      MOSUNNY   88  65  46 S20       29.88F HX  90
BROKEN BOW     MOSUNNY   86  66  51 S15G26    29.92F
ORD            MOSUNNY   86  65  49 S15G23    29.91F
$$

NEZ041-046>049-061>064-073>077-083>087-042200-
SOUTH CENTRAL NEBRASKA

CITY           SKY/WX    TMP DP  RH WIND       PRES   REMARKS
GRAND ISLAND   MOSUNNY   84  66  54 S16G22    29.95F
AURORA         MOSUNNY   82  64  55 S9G17     29.96S
HASTINGS       MOSUNNY   85  65  51 S13G20    29.95F
KEARNEY *      MOSUNNY   86  66  51 SE15G23   29.94S
$$

NEZ011>018-030>034-042>045-042200-
NORTHEAST NEBRASKA

CITY           SKY/WX    TMP DP  RH WIND       PRES   REMARKS
NORFOLK        MOSUNNY   82  65  56 S17G25    29.94F
BLAIR          PTSUNNY   81  61  51 S12G20    29.96F
COLUMBUS *     MOSUNNY   81  64  57 S10G17    29.97F
FREMONT        PTSUNNY   80  62  54 S13       29.96F
TEKAMAH        PTSUNNY   83  63  50 S13       29.95F
$$

NEZ050>053-065>068-078-088>093-042200-
SOUTHEAST NEBRASKA

CITY           SKY/WX    TMP DP  RH WIND       PRES   REMARKS
LINCOLN        PTSUNNY   82  64  54 S10       29.96F
OMAHA EPPLEY   PTSUNNY   82  60  47 S15       29.96F
FALLS CITY     PTSUNNY   82  62  50 SE10      29.97F
PLATTSMOUTH    PTSUNNY   79  58  49 S9        29.98S
$$

NEZ044-045-051>053-067-042200-
OMAHA AREA

CITY           SKY/WX    TMP DP  RH WIND       PRES   REMARKS
OMAHA EPPLEY   PTSUNNY   82  60  47 S15       29.96F
BLAIR          PTSUNNY   81  61  51 S12G20    29.96F
FREMONT        PTSUNNY   80  62  54 S13       29.96F
MILLARD        PTSUNNY   80  63  55 S10       29.96S
OFFUTT AFB     PTSUNNY   79  61  54 SE10      29.96F
PLATTSMOUTH    PTSUNNY   79  58  49 S9        29.98S
$$


USA.gov is the U.S. government's official web portal to all federal, state and local government web resources and services.